Regional Weather Roundup
Issued by NWS Lake Charles, LA

Current Version | Previous Version | Text Only | Print | Product List | Glossary On
Versions: 1 2 3 4 5 6 7 8 9 10 11 12 13 14 15 16 17 18 19 20 21 22 23 24 25 26 27 28 29 30 31 32 33 34 35 36 37 38 39 40 41 42 43 44 45 46 47 48 49 50
000
ASUS44 KLCH 050410
RWRLCH
RWRLCH
REGIONAL WEATHER ROUNDUP
NATIONAL WEATHER SERVICE LAKE CHARLES LA
1100 PM CDT SAT JUL 04 2015

Note: "fair" indicates few or no clouds below 12,000 feet with no
significant weather and/or obstructions to visibility.


ACROSS SOUTHEAST TEXAS

CITY           SKY/WX    TMP DP  RH WIND       PRES   REMARKS
BEAUMONT       MOCLDY    79  77  94 SE3       30.03R
BEAUMONT CITY    N/A     78  76  92 E5        30.04R
ORANGE         MOCLDY    81  80  99 CALM      30.05R
JASPER         CLOUDY    75  73  93 CALM      30.07R
$$

ACROSS CENTRAL LOUISIANA

CITY           SKY/WX    TMP DP  RH WIND       PRES   REMARKS
LEESVILLE      CLOUDY    72  71  96 SE6       30.04S
FULLERTON        N/A     75  71  87 CALM      30.02F
ALEXANDRIA INT CLOUDY    71  70  96 S3        30.01F
ESLER FIELD    RAIN      75  71  87 SE10      30.00F
DERIDDER       CLOUDY    74  73  96 E3        30.07S
OAKDALE        TSTM      75  74  96 E5        30.06F
OPELOUSAS        N/A    N/A N/A N/A CALM      30.07S
$$

ACROSS SOUTHWEST AND SOUTH CENTRAL LOUISIANA

CITY           SKY/WX    TMP DP  RH WIND       PRES   REMARKS
SULPHUR        CLOUDY    80  76  89 CALM      30.05R
LAKE CHARLES   CLOUDY    80  74  81 SE3       30.04R
CHENNAULT INT  CLOUDY    78  76  94 E5        30.05S
CAMERON PHI      N/A     84  77  79 S6        30.07S
DEQUINCY         N/A     77  77 100 CALM      30.05R
JENNINGS       MOCLDY    77  76  95 E6        30.06S
LAFAYETTE      CLOUDY    75  73  93 CALM      30.07R
NEW IBERIA     NOT AVBL
ABBEVILLE        N/A     75  74  96 CALM      30.07R
PATTERSON      PTCLDY    79  75  89 NE5       30.09R
SALT POINT       N/A     80  77  90 CALM      30.06R
$$

SELECTED SITES ACROSS THE REGION

CITY           SKY/WX    TMP DP  RH WIND       PRES   REMARKS
HOUSTON BUSH   MOCLDY    80  75  84 S5        30.01R
HOUSTON HOBBY  PTCLDY    80  77  90 SE3       30.01R
GALVESTON      CLEAR     83  78  85 S9        30.04R
COLLEGE STAT   PTCLDY    80  74  81 S8        30.01R
CONROE         PTCLDY    77  75  93 CALM      30.02R FOG
HUNTSVILLE     MOCLDY    81  75  82 CALM      30.02R
LUFKIN         MOCLDY    77  72  84 SE6       30.02S
SHREVEPORT     CLOUDY    73  71  93 S5        29.99F
MONROE         PTCLDY    72  70  93 SW8       30.03R
NATCHEZ MS     CLOUDY    72  68  88 S5        30.06R
BATON ROUGE    MOCLDY    74  73  97 CALM      30.09R FOG
N.O. INTL ARPT PTCLDY    77  70  79 CALM      30.08R
SLIDELL        PTCLDY    74  72  93 CALM      30.08R
$$

MARINE REPORTS

STATION/POSITION TIME  TEMP    WIND        PRES    VSBY  WAVE
                       AIR SEA DIR/SP/G                  HT/PER
                 (UTC) (F)     (DEG/KT/KT) (MB)    (MI)  (FT/S)
BUOY 30 S HIGH I 0350   84 84  160/ 10/ 12 1016.1R         3/ 5
SEA RIM ST PARK  0300   84     190/  9/ 11 1016.9R
PORT ARTHUR      0300      85   CALM  /  3 1016.5R
SABINE PASS N    0300   83 85  190/  5/  7 1016.7R
TEXAS POINT      NOT AVBL
CALCASIEU PASS   0300   85 84  220/ 10/ 12   N/A
LK CHARLES BEACH 0300   82 86                N/A
MARSH ISLAND     0300   85     190/  4/  7   N/A           0
FRESH WATER LOCK 0300   83 85  170/  3/  5 1017.3R
AMERADA PASS     0300   81 85     CALM     1017.7R
$$


USA.gov is the U.S. government's official web portal to all federal, state and local government web resources and services.